{"data":{"norad_id":58639,"intl_designator":"2023-203X","name":"STARLINK-31070","alt_names":[],"object_type":"PAYLOAD","status":"ACTIVE","operator":null,"country":"US","launch_date":"2023-12-23","launch_site_code":"AFETR","launch_vehicle":null,"mission":null,"orbit_class":"UNKNOWN","rcs_meters":null,"size_class":null,"mass_kg":null,"dimensions":null,"purposes":["comms"],"wikipedia_slug":null,"has_3d_model":false,"image_url":null,"decayed_at":null,"tle_current":{"epoch":"2026-09-20T09:19:51.843936Z","epoch_age_seconds":159429,"freshness":"FRESH","line1":"1 58639U 23203X   26263.38879449  .00000294  00000+0  20202-4 0  9996","line2":"2 58639  43.0050  47.9185 0001164 256.2672 103.8050 15.27577238153330","mean_motion":15.27577238,"eccentricity":0.0001164,"inclination_deg":43.005,"raan_deg":47.9185,"arg_perigee_deg":256.2672,"mean_anomaly_deg":103.805,"bstar":2.0202e-5,"rev_number":15333,"period_min":94.266919156595,"perigee_km":482.25872344948,"apogee_km":483.856009498,"semimajor_km":6861.1943664737,"source":"CELESTRAK","updated_at":"2026-09-21T09:00:33.941490Z"}}}